Regional Weather Roundup
Issued by NWS

Home | Current Version | Previous Version | Text Only | Print | Product List | Glossary Off
Versions: 1 2 3 4 5 6 7 8 9 10 11 12 13 14 15 16 17 18 19 20 21 22 23 24 25 26 27 28 29 30 31 32 33 34 35 36 37 38 39 40 41 42 43 44 45 46 47 48 49 50

000
ASUS43 KOAX 010402
RWRNE

WEATHER ROUNDUP FOR NEBRASKA
NATIONAL WEATHER SERVICE OMAHA NE
1100 PM CDT TUE MAR 31 2015

NOTES: SATELLITE DATA IS BEING USED TO AUGMENT CLOUD COVER ABOVE
       12000 FEET.
       "FAIR" INDICATES FEW OR NO CLOUDS BELOW 12,000 FEET WITH NO
       SIGNIFICANT WEATHER AND/OR OBSTRUCTIONS TO VISIBILITY.

  * THESE STATIONS DO NOT REPORT WEATHER SUCH AS RAIN...SNOW OR FOG.

NEZ001>004-019>022-054>056-010500-
NEBRASKA PANHANDLE

CITY           SKY/WX    TMP DP  RH WIND       PRES   REMARKS
SCOTTSBLUFF    MOCLDY    55  24  30 SE8       29.72F
ALLIANCE       PTCLDY    47  26  44 S10       29.73F
CHADRON        MOCLDY    54  27  35 CALM      29.66F
SIDNEY         CLEAR     52  21  29 S12       29.78F
$$

NEZ057>060-069>072-079>082-010500-
SOUTHWEST NEBRASKA

CITY           SKY/WX    TMP DP  RH WIND       PRES   REMARKS
IMPERIAL       CLEAR     53  21  28 S8        29.78F
MCCOOK         CLEAR     64  27  24 S10       29.79S
$$

NEZ005>010-023>029-035>040-094-010500-
NORTH CENTRAL NEBRASKA

CITY           SKY/WX    TMP DP  RH WIND       PRES   REMARKS
VALENTINE      PTCLDY    60  24  25 SW12      29.70F
AINSWORTH      CLEAR     60  27  28 S14       29.73F
BROKEN BOW     CLEAR     63  29  27 S15       29.79F
ORD            CLEAR     61  27  27 S10       29.78F
$$

NEZ041-046>049-061>064-073>077-083>087-010500-
SOUTH CENTRAL NEBRASKA

CITY           SKY/WX    TMP DP  RH WIND       PRES   REMARKS
GRAND ISLAND   CLEAR     61  31  32 S15       29.83F
AURORA         CLEAR     61  31  32 S14       29.83F
HASTINGS       CLEAR     61  31  32 S13       29.83F
KEARNEY *      CLEAR     61  28  29 S16       29.82F
$$

NEZ011>018-030>034-042>045-010500-
NORTHEAST NEBRASKA

CITY           SKY/WX    TMP DP  RH WIND       PRES   REMARKS
NORFOLK        CLEAR     61  33  35 S15       29.81F
ALBION         CLEAR     54  30  40 SE7       29.81F
BLAIR          CLEAR     64  29  27 SE9       29.87F
COLUMBUS *     CLEAR     61  32  33 S14       29.85F
TEKAMAH        CLEAR     51  27  39 S7        29.85F
$$

NEZ050>053-065>068-078-088>093-010500-
SOUTHEAST NEBRASKA

CITY           SKY/WX    TMP DP  RH WIND       PRES   REMARKS
LINCOLN        CLEAR     54  34  46 S8        29.87F
OMAHA EPPLEY   PTCLDY    62  32  32 S12       29.87F
BEATRICE       CLEAR     60  33  36 SE10      29.88F
FALLS CITY     CLEAR     56  31  38 SE3       29.92R
NEBRASKA CITY  CLEAR     55  28  35 SE8       29.90F
$$

NEZ044-045-051>053-067-010500-
OMAHA AREA

CITY           SKY/WX    TMP DP  RH WIND       PRES   REMARKS
OMAHA EPPLEY   PTCLDY    62  32  32 S12       29.87F
BLAIR          CLEAR     64  29  27 SE9       29.87F
OFFUTT AFB     CLEAR     49  31  50 E6        29.87F
WAHOO          FAIR      53  31  44 SE8       29.86F
$$



USA.gov is the U.S. government's official web portal to all federal, state and local government web resources and services.